[[{"header":{"parameterUnit":"m.s-1","parameterCategory":1,"la1":30.2991,"la2":30.254,"lo1":-89.0895,"lo2":-89.0444,"dy":0.0017,"dx":0.0017,"nx":28,"ny":28,"refTime":"2023-08-23T21:00:00:Z","depth":0,"parameterNumber":2,"parameterNumberName":"U-component_of_WINDS"},"data":[0,0,0,0,0,0,0,0,0,0,0,0,0,0,0,0,0,0,0,0,0,0,0,0,0,0,0,0,0,0,0,0,0,0,0,0,0,0,0,0,0,0,0,0,0,0,0,0,0,0,0,0,0,0,0,0,0,0,-0.2893,-0.2893,0,-0.2913,-0.2914,-0.2914,-0.2915,-0.2915,-0.2915,-0.2915,-0.2935,-0.2936,-0.2936,0,0,0,0,0,0,0,0,0,0,0,0,0,-0.2856,-0.2856,-0.2893,-0.2893,-0.2894,-0.2913,-0.2914,-0.2914,-0.2915,-0.2915,-0.2915,-0.2915,-0.2935,-0.2936,-0.2937,0,0,0,0,0,0,0,0,0,0,0,0,0,-0.2874,-0.2857,-0.2893,-0.2897,-0.2897,-0.2913,-0.2914,-0.2914,-0.2915,-0.2915,-0.2915,-0.2914,-0.2934,-0.2936,-0.2937,-0.295,0,0,-0.294,-0.2941,0,0,0,0,0,0,0,0,-0.2873,-0.2875,-0.2896,-0.2897,-0.2897,-0.2912,-0.2908,-0.2926,-0.2916,-0.2909,-0.2915,-0.2914,-0.2927,-0.2929,-0.2934,-0.2951,-0.2952,-0.294,-0.2941,-0.2941,-0.2942,0,0,0,0,0,0,0,-0.2871,-0.2874,-0.2901,-0.2896,-0.2897,-0.2897,-0.29,-0.2911,-0.292,-0.2909,-0.2909,-0.2912,-0.2928,-0.2933,-0.2934,-0.2952,-0.294,-0.2941,-0.2942,-0.2942,-0.2983,-0.2983,0,0,0,0,0,0,-0.2869,-0.2873,-0.2901,-0.2902,-0.2884,-0.2898,-0.2901,-0.2907,-0.2919,-0.2921,-0.2912,-0.2912,-0.2931,-0.2933,-0.2935,-0.2952,-0.2941,-0.2942,-0.2943,-0.2982,-0.2983,-0.2983,0,0,0,0,0,0,-0.2869,-0.2872,-0.29,-0.2888,-0.2891,-0.2899,-0.2907,-0.2908,-0.2913,-0.2922,-0.2923,-0.2915,-0.2931,-0.2933,-0.2947,-0.2953,-0.2943,-0.2944,-0.2982,-0.2982,-0.2983,-0.2987,0,0,0,0,0,0,-0.2868,-0.2872,-0.2877,-0.2888,-0.2892,-0.2911,-0.2907,-0.2908,-0.2915,-0.2915,-0.2925,-0.2927,-0.2931,-0.2945,-0.2948,-0.2954,-0.2945,-0.2981,-0.2982,-0.2983,-0.2986,-0.2987,-0.2988,0,0,0,0,0,-0.2866,-0.2877,-0.2877,-0.2881,-0.2899,-0.2912,-0.2914,-0.2918,-0.2915,-0.2921,-0.2926,-0.2926,-0.2951,-0.2946,-0.2949,-0.2956,-0.2981,-0.2982,-0.2983,-0.2985,-0.2987,-0.2988,0,0,0,0,0,0,-0.2867,-0.2878,-0.2879,-0.2893,-0.2901,-0.2912,-0.2919,-0.292,-0.2929,-0.2928,-0.2933,-0.2935,-0.2949,-0.2954,-0.2948,-0.297,-0.2966,-0.2967,-0.2967,-0.2968,-0.297,-0.2968,-0.2946,0,0,0,0,0,-0.2868,-0.2878,-0.2888,-0.29,-0.2904,-0.2911,-0.2916,-0.2919,-0.2928,-0.2931,-0.2938,-0.2946,-0.2956,-0.2962,-0.2972,-0.2986,-0.2989,-0.2993,-0.2994,-0.2995,-0.2996,-0.3005,-0.3007,-0.2986,-0.2986,-0.2986,0,0,-0.2872,-0.288,-0.2886,-0.29,-0.2907,-0.2917,-0.2914,-0.2924,-0.2932,-0.2933,-0.2946,-0.2951,-0.2961,-0.2975,-0.2981,-0.2979,-0.3003,-0.2996,-0.2997,-0.2998,-0.3006,-0.3008,-0.301,-0.2987,-0.2987,-0.2986,0,0,-0.2884,-0.2891,-0.2902,-0.2909,-0.2919,-0.2923,-0.2926,-0.2936,-0.294,-0.2953,-0.2954,-0.2963,-0.298,-0.2987,-0.2992,-0.3007,-0.3008,-0.301,-0.3017,-0.3025,-0.3027,-0.3028,-0.3034,-0.3036,-0.3011,-0.3011,-0.3011,0,-0.2888,-0.2903,-0.2907,-0.2918,-0.2925,-0.2926,-0.2937,-0.2943,-0.2956,-0.2961,-0.2958,-0.2979,-0.2986,-0.3002,-0.3006,-0.301,-0.3013,-0.3009,-0.3026,-0.3028,-0.3029,-0.3035,-0.3037,-0.3012,-0.3012,-0.3012,-0.3012,0,-0.2907,-0.2918,-0.2926,-0.2938,-0.2945,-0.2956,-0.2962,-0.2969,-0.2971,-0.2975,-0.2989,-0.2997,-0.3008,-0.3012,-0.3014,-0.3028,-0.3027,-0.3025,-0.3021,-0.3031,-0.3037,-0.3039,-0.3012,-0.3012,-0.3012,-0.3012,0,0,-0.2921,-0.2936,-0.2939,-0.2945,-0.2956,-0.2964,-0.2975,-0.2986,-0.2992,-0.3001,-0.3011,-0.3024,-0.3023,-0.3029,-0.3032,-0.3039,-0.3051,-0.3037,-0.3037,-0.304,-0.3069,-0.3071,-0.3073,-0.3051,-0.3052,-0.3052,-0.3068,0,-0.2935,-0.2955,-0.2959,-0.2977,-0.2987,-0.2988,-0.2998,-0.3006,-0.301,-0.302,-0.3024,-0.3035,-0.3032,-0.3036,-0.3043,-0.3048,-0.3057,-0.3047,-0.3061,-0.3061,-0.3059,-0.3076,-0.3078,-0.3093,-0.307,-0.3071,-0.3071,0,-0.2955,-0.2964,-0.2983,-0.2993,-0.2998,-0.3006,-0.3017,-0.3026,-0.3035,-0.3038,-0.3045,-0.3046,-0.3058,-0.3052,-0.3069,-0.3061,-0.3067,-0.3071,-0.3071,-0.3074,-0.3068,-0.308,-0.3098,-0.3101,-0.3074,-0.3074,-0.3074,0,-0.2964,-0.2981,-0.2995,-0.3,-0.3012,-0.3018,-0.3023,-0.3032,-0.3039,-0.3048,-0.3052,-0.3063,-0.3069,-0.3076,-0.3081,-0.3076,-0.3097,-0.3091,-0.31,-0.31,-0.3105,-0.3105,-0.3126,-0.3107,-0.3107,-0.3107,-0.3107,0,-0.298,-0.2992,-0.2999,-0.3008,-0.3021,-0.3025,-0.3038,-0.3043,-0.3051,-0.306,-0.3061,-0.307,-0.3075,-0.3084,-0.3088,-0.3101,-0.3103,-0.3106,-0.3107,-0.3107,-0.3106,-0.3111,-0.3111,-0.3108,-0.3107,-0.3107,-0.3107,0,-0.2993,-0.2999,-0.3014,-0.3024,-0.3027,-0.3036,-0.3045,-0.3053,-0.3057,-0.3069,-0.3072,-0.3079,-0.3091,-0.3096,-0.3109,-0.3111,-0.3127,-0.3127,-0.3124,-0.3125,-0.3133,-0.3133,-0.3159,-0.3163,-0.314,-0.3141,-0.3141,0,-0.3004,-0.3013,-0.3024,-0.3031,-0.3036,-0.3047,-0.3054,-0.3058,-0.3065,-0.3076,-0.3083,-0.3094,-0.3104,-0.3122,-0.3128,-0.3138,-0.3139,-0.3147,-0.314,-0.314,-0.314,-0.314,-0.3141,-0.3149,-0.3149,-0.3149,-0.3149,0,-0.3022,-0.3025,-0.3035,-0.3046,-0.3054,-0.3063,-0.3071,-0.3076,-0.3082,-0.309,-0.3102,-0.3109,-0.3123,-0.3134,-0.3145,-0.3151,-0.3151,-0.3151,-0.3154,-0.3154,-0.3153,-0.3155,-0.3129,-0.3151,-0.3151,-0.315,-0.315,-0.315,-0.3035,-0.3043,-0.3053,-0.3064,-0.3071,-0.3079,-0.3088,-0.3093,-0.3103,-0.3115,-0.3117,-0.3129,-0.3138,-0.3153,-0.3159,-0.3168,-0.3166,-0.317,-0.3171,-0.3172,-0.3173,-0.315,-0.317,-0.317,-0.317,-0.317,-0.317,0,-0.3054,-0.306,-0.3071,-0.3083,-0.3092,-0.3091,-0.3101,-0.3108,-0.3119,-0.3128,-0.3137,-0.315,-0.3161,-0.3168,-0.318,-0.3186,-0.3187,-0.3189,-0.3189,-0.319,-0.3174,-0.3171,-0.3188,-0.3188,-0.3188,-0.3188,-0.3188,-0.3188,-0.3066,-0.308,-0.3083,-0.3101,-0.3107,-0.312,-0.3125,-0.3133,-0.3139,-0.3155,-0.3164,-0.3168,-0.3176,-0.3188,-0.3198,-0.32,-0.3204,-0.3207,-0.3209,-0.3193,-0.3191,-0.319,-0.3187,-0.3207,-0.3207,-0.3224,-0.3224,-0.3224]},{"header":{"parameterUnit":"m.s-1","parameterCategory":1,"la1":30.2991,"la2":30.254,"lo1":-89.0895,"lo2":-89.0444,"dy":0.0017,"dx":0.0017,"nx":28,"ny":28,"refTime":"2023-08-23T21:00:00:Z","depth":0,"parameterNumber":3,"parameterNumberName":"V-component_of_WINDS"},"data":[0,0,0,0,0,0,0,0,0,0,0,0,0,0,0,0,0,0,0,0,0,0,0,0,0,0,0,0,0,0,0,0,0,0,0,0,0,0,0,0,0,0,0,0,0,0,0,0,0,0,0,0,0,0,0,0,0,0,0.8511,0.8512,0,0.8588,0.8589,0.859,0.8613,0.8612,0.8612,0.8612,0.8687,0.8689,0.8691,0,0,0,0,0,0,0,0,0,0,0,0,0,0.838,0.8382,0.8511,0.8512,0.8513,0.8588,0.8589,0.859,0.8613,0.8612,0.8612,0.8611,0.8686,0.8689,0.8691,0,0,0,0,0,0,0,0,0,0,0,0,0,0.8445,0.8383,0.8511,0.8534,0.8536,0.8588,0.8589,0.859,0.8613,0.8612,0.8612,0.8611,0.8685,0.8688,0.8692,0.8725,0,0,0.8703,0.8704,0,0,0,0,0,0,0,0,0.8441,0.845,0.8529,0.8532,0.8535,0.859,0.857,0.8635,0.8613,0.8584,0.8612,0.8611,0.8655,0.8661,0.8676,0.8728,0.8732,0.8703,0.8705,0.8706,0.8707,0,0,0,0,0,0,0,0.8437,0.8446,0.8541,0.853,0.8534,0.8538,0.8547,0.8583,0.8621,0.8586,0.8588,0.8597,0.8656,0.8673,0.8678,0.8733,0.8703,0.8706,0.8708,0.8709,0.8814,0.8814,0,0,0,0,0,0,0.8429,0.8443,0.8539,0.8544,0.8486,0.8541,0.8551,0.8573,0.8621,0.8628,0.8597,0.8598,0.8667,0.8674,0.8681,0.8722,0.8706,0.871,0.8712,0.8813,0.8814,0.8814,0,0,0,0,0,0,0.8426,0.8437,0.8536,0.8494,0.8507,0.8544,0.8569,0.8575,0.8592,0.863,0.8636,0.8608,0.8667,0.8676,0.8714,0.8725,0.8711,0.8715,0.8812,0.8813,0.8814,0.8804,0,0,0,0,0,0,0.8422,0.8436,0.845,0.8494,0.8509,0.8569,0.857,0.8577,0.8598,0.8599,0.8641,0.8647,0.8667,0.8708,0.8717,0.8729,0.8717,0.8811,0.8813,0.8814,0.8804,0.8805,0.8805,0,0,0,0,0,0.8417,0.8444,0.8451,0.8462,0.8528,0.8569,0.8578,0.8601,0.8599,0.8613,0.8637,0.8646,0.8722,0.8712,0.8722,0.8735,0.8811,0.8812,0.8814,0.8803,0.8804,0.8805,0,0,0,0,0,0,0.84,0.845,0.8458,0.85,0.8531,0.8573,0.8592,0.8602,0.8633,0.8633,0.8659,0.8668,0.8704,0.8723,0.8711,0.8769,0.8766,0.877,0.8755,0.8756,0.8757,0.8752,0.872,0,0,0,0,0,0.8401,0.8433,0.8474,0.8507,0.8522,0.8554,0.8573,0.8588,0.862,0.8633,0.866,0.8689,0.8719,0.8739,0.8769,0.8806,0.8815,0.882,0.8821,0.8822,0.8824,0.8844,0.8846,0.8819,0.8819,0.8819,0,0,0.8404,0.8435,0.8453,0.8504,0.853,0.8559,0.8564,0.8596,0.8618,0.8637,0.8675,0.8695,0.8729,0.8767,0.8784,0.8784,0.8834,0.8824,0.8824,0.8826,0.8845,0.8848,0.885,0.882,0.882,0.882,0,0,0.8424,0.8452,0.8481,0.8506,0.8544,0.8565,0.8572,0.8613,0.8628,0.8666,0.868,0.8706,0.8758,0.8781,0.88,0.8827,0.8836,0.8836,0.8841,0.8859,0.8861,0.8863,0.8872,0.8875,0.8838,0.8838,0.8838,0,0.8422,0.847,0.8495,0.8526,0.8547,0.8566,0.8595,0.8618,0.8663,0.8677,0.8676,0.8741,0.8766,0.8808,0.8814,0.8829,0.8836,0.8831,0.8859,0.8861,0.8864,0.8872,0.8875,0.8838,0.8838,0.8838,0.8838,0,0.8465,0.8497,0.8516,0.856,0.8584,0.8613,0.8642,0.8662,0.8675,0.8695,0.8732,0.8762,0.8798,0.8809,0.8822,0.8852,0.8851,0.8854,0.8852,0.8866,0.8874,0.8877,0.8838,0.8838,0.8838,0.8838,0,0,0.8477,0.8534,0.8541,0.856,0.8603,0.8627,0.8657,0.8693,0.8709,0.8739,0.8764,0.8807,0.881,0.8831,0.8846,0.8862,0.888,0.8864,0.8865,0.8865,0.8914,0.8911,0.8914,0.8886,0.8887,0.8887,0.8911,0,0.8502,0.8558,0.858,0.8624,0.8653,0.8671,0.8696,0.8724,0.8743,0.8769,0.879,0.882,0.8823,0.8835,0.8852,0.8874,0.889,0.8873,0.8908,0.8909,0.8898,0.8919,0.8916,0.8936,0.8914,0.8915,0.8915,0,0.8539,0.857,0.8617,0.8655,0.8668,0.8691,0.8724,0.875,0.8781,0.8793,0.8816,0.883,0.886,0.8856,0.8896,0.8884,0.89,0.8912,0.8914,0.8918,0.8913,0.8922,0.8944,0.8946,0.8921,0.892,0.892,0,0.8542,0.8595,0.863,0.8646,0.8691,0.8707,0.8726,0.8757,0.8776,0.8805,0.8817,0.8849,0.8866,0.8889,0.8911,0.8906,0.8949,0.8947,0.8959,0.8958,0.8967,0.8966,0.899,0.8978,0.8978,0.8977,0.8977,0,0.8567,0.8595,0.8632,0.8653,0.8684,0.8709,0.8738,0.8759,0.8785,0.881,0.8826,0.8848,0.8875,0.89,0.8917,0.8947,0.8955,0.8965,0.8969,0.8963,0.8962,0.8973,0.8972,0.8978,0.8978,0.8978,0.8978,0,0.8576,0.8602,0.8641,0.868,0.869,0.8711,0.8744,0.8764,0.8784,0.8814,0.8823,0.8853,0.8883,0.8907,0.8946,0.8957,0.8988,0.8993,0.8978,0.898,0.8991,0.8989,0.9023,0.9028,0.9012,0.9012,0.9012,0,0.8591,0.8612,0.8654,0.8672,0.8691,0.8719,0.8739,0.8764,0.8783,0.8819,0.8835,0.8866,0.8893,0.894,0.8964,0.8994,0.8999,0.9008,0.9003,0.8996,0.8998,0.8996,0.8998,0.9009,0.9009,0.9009,0.9009,0,0.8613,0.8624,0.8653,0.8686,0.8709,0.8736,0.8763,0.8776,0.8805,0.8826,0.8857,0.8878,0.8917,0.8948,0.8979,0.8998,0.9008,0.9011,0.9015,0.9009,0.8999,0.9004,0.8979,0.901,0.901,0.901,0.901,0.901,0.8624,0.8644,0.8676,0.8707,0.8729,0.8754,0.8775,0.8797,0.8824,0.8858,0.8871,0.8902,0.8931,0.8975,0.8993,0.9017,0.9018,0.9024,0.9025,0.9026,0.9025,0.8996,0.9023,0.9023,0.9023,0.9023,0.9023,0,0.8647,0.8668,0.8696,0.8733,0.8757,0.8765,0.8795,0.8814,0.8842,0.8868,0.8894,0.8929,0.8958,0.8984,0.9014,0.9028,0.9033,0.9035,0.9034,0.9038,0.9024,0.9017,0.903,0.903,0.903,0.903,0.903,0.903,0.8661,0.8694,0.8709,0.8753,0.8773,0.8805,0.8821,0.8843,0.8864,0.8903,0.8928,0.8945,0.8971,0.9002,0.9029,0.9036,0.9045,0.9046,0.9054,0.904,0.9039,0.9038,0.9031,0.9048,0.9048,0.9066,0.9066,0.9066]}]]